STARLINK-5682 (55457 NORAD) Tracking and Keplerian Element Data

This shows tracking and keplerian element data for the satellite.

Feedback or suggestion? Click here.




ElementValue
Catalog55457
NameSTARLINK-5682
Epoch Orbit831
Epoch Day85.25001157
Epoch Year2023
RAAN76.7678
Inclination43.001
Eccentricity0.0001219
Argument of Perigee275.8767
Mean Anonmoly132.7131
Mean Motion15.48913647
Decay Rate-0.00030255
L11 55457U 23015J 23085.25001157 -.00030255 00000+0 -54310-3 0 9998
L22 55457 43.0010 76.7678 0001219 275.8767 132.7131 15.48913647 8310



Live tracking and technical data element details for STARLINK-5682 (NORAD 55457). STARLINK-5682 can be tracked NOW for your location showing map with azimuth and elevation plus other details from your city location.







IsCatalogInMostPopularTable: catalog: 55457, numindb: -1

Insert: records affected: 1


GetName: 55457 STARLINK-5682

Hit Count: inserted at: Tue, 28 Mar 2023 03:26:32 GMT